Location: Hopewell Observatory
(38.8698°N, 77.6988°W)
Time: 14:23:54
(UTC-04:00)

Daily predictions for brighter satellites

Satellite Brightness Start Highest point End
(mag) Time Altitude Azimuth Time Altitude Azimuth Time Altitude Azimuth
BREEZE-M DEB (TANK) 3.8 20:40:35 10° WNW 20:44:18 67° SW 20:57:18 10° SE
Lacrosse 5 rocket 2.3 20:50:24 10° WSW 20:54:06 49° NW 20:58:00 10° NNE
Cosmos 1025 Rocket 3.1 20:50:23 10° S 20:54:46 90° W 20:59:11 10° N
Cosmos 2098 Rocket 3.2 20:51:54 10° NNW 20:55:17 64° W 20:59:27 10° S
Cosmos 1743 2.7 20:51:29 10° N 20:55:19 64° E 20:59:06 10° SSE
Meteor 1-23 Rocket 4.5 20:49:58 10° SSE 20:55:23 51° E 21:00:54 10° NNE
Cosmos 2251 Rocket 3.6 20:51:15 10° SSW 20:56:33 89° WNW 21:01:57 10° NNE
Cosmos 1892 Rocket 3.6 20:58:32 10° S 21:02:57 76° E 21:07:26 10° N
ERS-1 Rocket 3.1 20:58:35 10° SSE 21:03:30 58° ENE 21:08:26 10° N
Cosmos 1603 4.5 20:59:06 10° SSE 21:03:56 30° ESE 21:08:46 10° NE
USA 234 4.3 21:00:13 10° E 21:06:03 36° NNE 21:11:55 10° NW
Envisat 3.9 21:02:59 10° SE 21:07:29 33° ENE 21:12:00 10° N
SJ-11-01 4.4 21:05:02 10° SSE 21:09:37 59° ENE 21:14:12 10° N
Cosmos 1110 Rocket 4.1 21:04:57 10° NNW 21:10:17 89° WSW 21:15:32 10° SSE
USA 186 2.8 21:10:25 10° S 21:13:11 39° W 21:15:48 10° NNW
Meteor 2-4 Rocket 3.8 21:09:15 10° S 21:15:04 79° E 21:21:01 10° NNE
Abrixas rocket 2.7 21:11:59 10° NW 21:15:22 58° NNE 21:18:26 12° ESE
Cosmos 2333 Rocket 4.4 21:12:25 10° WSW 21:17:23 31° WNW 21:22:23 10° N
Okean 2 3.4 21:13:14 10° S 21:17:24 77° E 21:21:36 10° N
BREEZE M DEB (TANK) 3.3 21:16:34 10° WNW 21:19:34 28° N 21:21:24 10° ENE
Cosmos 2297 3.9 21:14:29 10° NNW 21:20:12 77° WSW 21:25:55 10° SSE
Tsikada Rocket 4.4 21:17:46 10° SSE 21:23:48 45° E 21:29:49 10° NNE
FENGYUN 3A 4.5 21:21:14 10° S 21:26:26 51° W 21:31:41 10° NNW
Cosmos 1726 Rocket 4.2 21:23:38 10° NNW 21:28:00 57° W 21:32:19 10° S
H-2A R/B 4.3 21:25:24 10° SSW 21:29:02 36° W 21:32:44 10° NNW
YAOGAN 6 4.4 21:27:50 14° ESE 21:29:44 19° ENE 21:32:26 10° NNE
PSLV R/B 3.4 21:29:04 10° WSW 21:32:33 57° SSE 21:36:04 10° E
ISS -2.4 21:29:47 10° SSW 21:32:34 26° SE 21:35:21 10° ENE
Cosmos 2285 Rocket 4.1 21:28:55 10° NNW 21:35:15 79° WSW 21:41:35 10° SSE
CZ-2C R/B 2.6 21:37:03 10° SSW 21:39:00 24° W 21:40:59 10° NW
Cosmos 1461 3.1 21:35:19 10° NNW 21:39:33 57° ENE 21:42:09 21° SE
SPOT 5 2.8 21:36:21 16° SSE 21:39:43 55° ENE 21:43:58 10° N
Cosmos 2058 Rocket 3.8 21:37:27 10° NNW 21:41:42 52° W 21:45:55 10° S
Cosmos 1464 Rocket 4.2 21:39:47 10° N 21:45:53 72° W 21:52:01 10° S
Cosmos 1602 Rocket 3.5 21:41:33 10° S 21:46:01 80° E 21:50:30 10° N
CZ-4 SHROUD 3.1 21:46:44 23° SSE 21:48:34 79° E 21:51:44 10° N
H-2A R/B 3.9 21:48:11 12° E 21:50:26 15° ENE 21:53:15 10° NNE
ALOS 4.4 21:48:10 10° SSW 21:51:53 23° W 21:55:36 10° NW
Aureole 2 Rocket 3.9 21:49:35 10° SW 21:53:24 43° WNW 21:56:54 10° N
GRACE-1 3.8 21:50:51 10° N 21:53:44 86° E 21:55:07 27° S
GRACE-2 3.8 21:51:18 10° N 21:54:11 86° E 21:55:33 28° S
Cosmos 1812 Rocket 3.6 21:53:36 10° N 21:57:58 65° E 22:00:27 25° SSE
SPOT 1/Viking Rocket 3.9 21:55:42 23° SE 21:58:40 48° ENE 22:03:36 10° N
Terra 3.6 22:00:40 15° E 22:02:22 17° ENE 22:05:25 10° NNE
Cosmos 2034 Rocket 4.3 21:58:09 10° NNW 22:04:29 70° W 22:10:30 11° S
Cosmos 1634 Rocket 4.4 21:59:55 10° N 22:05:48 44° ENE 22:08:55 25° SE
USA 245 4.4 22:05:43 24° SSE 22:09:28 64° ENE 22:14:45 10° N
H-2A R/B 3.7 22:05:53 10° SSW 22:09:37 30° W 22:13:26 10° NW
Atlas Centaur 2 3.4 22:03:02 10° WSW 22:10:14 42° SSE 22:15:35 20° ESE
SeaSat 1 2.5 22:07:21 24° SSE 22:10:21 75° WSW 22:15:18 10° NNW
ARGOS 3.4 22:10:34 28° SE 22:13:15 53° ENE 22:18:32 10° N
Cosmos 2369 Rocket 3.0 22:08:39 10° N 22:13:57 39° ENE 22:16:29 26° ESE
CZ-4C R/B 4.4 22:12:56 29° ESE 22:14:05 34° ENE 22:17:49 10° N
DEBRIS 2.4 22:11:22 10° WNW 22:15:19 48° SW 22:15:34 46° SSW
PSLV R/B 4.4 22:16:10 23° SSW 22:17:32 36° W 22:20:26 10° NNW
CZ-4B R/B 3.5 22:13:16 10° NNE 22:18:22 90° WNW 22:22:53 14° SSW
NAVSTAR 52 R/B(PAM-D 4.2 22:18:56 10° W 22:23:18 75° SSW 22:23:42 64° SE
NOAA 11 4.3 22:22:44 33° SE 22:25:07 62° ENE 22:30:29 10° N
COSMOS 2455 2.9 22:20:42 10° SSW 22:26:41 79° WNW 22:32:44 10° NNE
Milstar 3 Cent rocket 4.1 22:23:56 10° WSW 22:26:52 13° SSW 22:27:55 13° SSW
Meteor 2-12 Rocket 4.4 22:22:49 10° N 22:28:56 81° W 22:32:34 26° S
MetOp-B 4.5 22:28:00 24° S 22:31:14 61° WSW 22:36:33 10° NNW
Cosmos 1953 4.3 22:32:04 10° NNE 22:34:19 16° ENE 22:34:19 16° ENE
Cosmos 1953 Rocket 3.5 22:35:33 50° SSE 22:36:28 65° E 22:40:53 10° NNE
ATLAS 3B R/B 2.9 22:29:19 10° SSW 22:36:55 65° ESE 22:44:23 10° NE
Meteor 1-22 Rocket 4.3 22:32:33 10° N 22:38:05 62° E 22:40:01 40° SE
Cosmos 2346 Rocket 4.4 22:36:44 24° S 22:40:39 90° W 22:46:50 10° N
IGS 5A 4.3 22:43:55 35° ENE 22:44:07 35° ENE 22:47:55 10° N
Cosmos 1066 Rocket 4.3 22:43:48 27° SSW 22:47:03 81° W 22:52:53 10° N
USA 234 3.2 22:45:49 37° SSE 22:48:41 76° SW 22:55:17 10° NW
Cosmos 407 Rocket 3.4 22:49:25 44° S 22:51:04 73° ESE 22:56:18 10° NNE
Cosmos 1346 Rocket 2.8 22:56:00 67° SW 22:56:20 73° W 23:00:16 10° N
DELTA 2 DEB (DPAF) 4.2 22:56:14 58° S 22:57:02 76° WSW 23:01:33 10° NNW
SL-23 DEB 4.2 22:51:47 10° SW 22:58:05 64° SE 22:58:26 61° ESE
Cosmos-2242 3.8 22:54:21 10° N 22:58:21 39° ENE 22:58:21 39° ENE
Lacrosse 4 Rocket 1.2 22:59:11 80° ENE 22:59:11 80° ENE 23:03:06 10° NNE
SL-24 R/B 4.4 22:54:58 10° N 22:59:54 70° E 23:00:47 57° SSE
YAOGAN 6 4.4 23:02:20 23° WSW 23:03:09 25° W 23:06:16 10° NW
ISS -1.5 23:05:57 10° W 23:08:56 31° NNW 23:11:54 10° NE
Cosmos 1954 Rocket 4.0 23:09:47 60° ESE 23:10:05 62° ESE 23:15:20 10° NNE
PSLV R/B 4.4 23:06:42 10° W 23:09:23 45° WNW 23:09:23 45° WNW
Cosmos 1758 Rocket 3.8 23:10:06 54° SW 23:10:48 63° W 23:15:09 10° N
USA 238 DEB 4.0 23:10:59 45° SE 23:11:39 46° ESE 23:18:21 10° NE
USA 238 4.0 23:11:08 44° SE 23:11:46 45° ESE 23:18:26 10° NE
Cosmos 1943 3.9 23:07:20 13° SW 23:12:17 53° WNW 23:17:52 10° NNE
Cosmos 1842 3.7 23:13:32 57° NNE 23:13:32 57° NNE 23:16:46 10° N
Meteor 1-21 4.2 23:11:19 46° SSW 23:13:10 84° W 23:19:00 10° N
CARTOSAT-1 3.4 23:14:29 83° WSW 23:14:31 83° WSW 23:18:52 10° NNW
Cosmos 1758 4.1 23:15:43 10° N 23:19:02 46° NE 23:19:02 46° NE
Spot 4 3.6 23:22:16 83° SE 23:22:26 87° ENE 23:27:15 10° NNW
Cosmos 1943 Rocket 2.4 23:17:20 10° NNW 23:22:47 55° ENE 23:23:31 51° E
Landsat 7 4.3 23:23:17 46° SW 23:23:53 49° W 23:28:30 10° NNW
Spot 2 4.5 23:19:50 10° N 23:24:37 73° WNW 23:25:25 60° SW
H-2A R/B 2.1 23:28:49 58° SW 23:29:17 61° W 23:34:17 10° NNW
Cosmos 1092 Rocket 4.2 23:33:02 51° ESE 23:33:35 53° E 23:39:41 10° NNE
Cosmos 1766 4.3 23:30:57 10° NNW 23:34:21 42° WNW 23:34:21 42° WNW
Terra 2.3 23:39:33 49° WSW 23:39:41 49° W 23:44:18 10° NNW
Cosmos 1842 Rocket 4.2 23:38:03 10° N 23:41:34 50° NNE 23:41:34 50° NNE
Cosmos 1570 Rocket 4.2 23:38:10 10° N 23:43:29 58° ENE 23:43:34 58° ENE
Cosmos 1850 Rocket 4.2 23:46:11 58° ENE 23:46:11 58° ENE 23:50:41 10° NNE
Nadezhda 4 Rocket 3.9 23:45:01 65° S 23:46:04 90° NE 23:52:26 10° N
CZ-4C R/B 3.9 23:54:53 19° ENE 23:54:53 19° ENE 23:57:05 10° ENE
